Theta_e
334 334 332 334 332 331 328 326 322 319 317 316 313 315 314 314 313 309 307 309 304 302 302 302 301 300 303 305 305 304 304 304 304 304 306 307 310 310
335 332 332 333 331 330 328 325 321 320 316 314 314 314 313 311 310 307 307 307 302 302 302 300 301 303 302 303 304 304 304 304 304 304 305 306 308 309
332 330 332 330 329 328 325 321 319 316 313 314 314 313 311 309 309 308 306 307 306 303 302 302 302 302 303 301 300 300 299 300 301 305 305 305 308 308
333 330 330 329 329 327 322 320 317 314 314 314 314 312 310 310 309 307 306 306 305 305 302 302 302 302 301 301 301 301 301 301 301 304 305 305 307 307
331 331 331 331 328 326 322 316 314 315 315 314 312 311 309 307 305 306 306 305 305 304 302 301 301 301 301 300 301 301 301 301 301 303 304 304 306 307
325 329 329 329 327 326 320 314 316 315 313 312 311 309 307 305 303 304 304 305 303 303 302 300 300 300 300 300 300 300 301 302 302 303 303 304 305 306
325 326 327 329 327 326 323 315 316 313 311 310 308 306 304 302 302 302 304 304 304 304 302 301 301 299 299 300 300 301 301 302 303 303 304 305 307 307
327 327 328 327 326 325 317 316 314 311 309 307 305 304 302 300 302 302 302 302 302 301 299 300 300 299 299 300 300 301 302 303 304 306 307 309 308 308
326 326 324 324 323 319 314 311 309 308 305 303 303 302 300 300 301 302 302 301 302 300 299 299 298 298 299 301 302 303 303 304 307 307 306 309 308 310
322 321 320 319 317 315 313 311 309 305 303 301 301 301 300 300 302 302 301 301 300 299 298 297 298 298 300 301 303 303 304 305 308 307 306 309 309 311
315 314 312 311 310 309 309 307 304 302 301 300 300 300 300 300 300 300 301 300 299 298 297 296 297 297 300 301 302 304 306 308 308 306 307 310 308 306
304 303 302 302 301 300 301 301 302 302 300 299 299 299 299 300 300 300 300 300 298 297 296 296 296 297 300 300 302 304 305 305 307 307 306 305 306 305
301 301 301 301 300 300 299 299 299 299 298 299 299 299 299 299 299 299 299 298 297 296 296 295 296 297 298 298 299 303 301 303 304 307 306 305 304 303
301 301 300 299 299 298 298 298 298 298 298 297 298 298 298 298 298 298 297 297 296 295 295 295 295 296 297 296 295 297 298 298 301 304 304 303 302 301
299 299 298 298 298 298 298 298 297 297 297 297 297 298 298 298 298 298 297 296 295 295 295 294 295 296 296 296 295 295 297 297 299 302 301 300 301 301
298 298 297 297 297 297 297 296 296 296 296 296 296 297 298 297 297 297 296 295 293 292 293 293 295 295 296 296 295 295 296 296 297 300 301 300 301 299
298 298 297 297 296 296 295 295 296 296 296 296 296 297 297 297 296 295 294 293 292 292 293 294 294 295 296 297 297 297 299 300 300 300 300 298 298 297
296 296 295 295 295 295 294 294 295 295 296 296 296 296 296 296 295 294 293 292 291 291 292 294 295 295 295 295 297 297 298 299 298 298 299 299 297 296
296 295 294 294 294 293 294 294 294 295 295 295 295 296 296 296 294 293 293 291 290 291 292 293 294 294 293 292 292 295 298 297 297 298 298 298 297 296
293 293 293 293 293 293 293 293 294 294 294 294 295 294 295 295 294 292 291 291 291 291 291 292 293 293 293 292 291 292 295 297 298 297 296 296 295 294
292 292 292 292 292 292 292 292 292 293 293 293 294 294 294 294 293 292 290 290 290 291 291 292 292 292 293 293 293 291 292 294 296 298 297 296 294 293
292 292 292 291 291 291 292 291 291 292 292 293 293 293 293 293 292 291 291 290 290 291 291 292 292 293 294 294 294 293 291 292 293 296 296 296 294 293
292 291 291 291 291 291 291 291 291 291 291 292 292 292 292 292 292 291 291 290 291 291 291 292 292 292 293 293 294 293 292 292 293 294 294 295 296 296
Wind_Speed
31 33 33 34 36 33 36 36 33 20 29 27 25 20 20 19 19 22 19 20 26 26 27 26 27 28 27 28 29 30 32 31 30 34 33 32 31 33
32 33 32 33 33 35 35 34 32 28 22 21 23 22 20 17 18 22 20 26 29 27 25 26 26 27 28 30 32 34 34 34 34 33 31 31 30 33
34 35 31 32 31 33 35 35 35 30 29 23 22 20 20 22 18 20 20 21 19 24 25 25 25 28 30 32 33 34 35 33 33 32 31 27 26 28
36 33 34 31 36 36 39 38 38 30 28 27 24 25 22 18 18 19 20 19 19 22 22 24 26 28 30 32 33 33 31 30 28 31 33 29 29 24
37 36 34 33 36 37 42 39 36 33 30 27 26 22 21 18 18 16 17 20 18 20 23 24 25 29 31 32 32 31 27 25 25 29 31 30 28 28
35 39 35 37 38 38 45 43 38 36 34 30 24 22 23 21 17 16 17 19 19 16 18 20 23 27 26 26 27 27 23 23 24 27 28 29 28 31
40 38 38 42 39 41 49 45 43 38 32 29 26 28 24 21 23 17 17 18 15 15 16 15 15 19 19 23 22 20 20 21 22 22 24 27 26 28
42 41 40 43 43 45 46 47 46 32 30 29 26 24 20 18 20 17 19 17 16 18 20 17 16 17 18 20 18 16 17 17 15 15 19 22 27 30
38 40 43 42 43 46 41 38 28 28 25 23 20 17 16 17 18 20 20 16 16 15 20 21 15 15 17 17 16 15 14 12 9 7 6 20 15 11
34 36 39 42 41 40 40 42 38 33 29 23 22 18 16 14 17 19 17 19 20 19 18 20 15 14 12 12 12 8 11 10 13 5 8 26 33 56
29 30 28 30 31 32 37 34 32 26 23 22 19 19 17 18 19 19 20 19 18 18 15 17 14 13 10 12 8 4 9 12 19 2 28 40 43 35
8 8 8 11 12 11 13 16 19 20 19 18 19 19 16 19 20 19 17 18 16 14 17 11 11 9 5 8 5 7 10 11 16 20 28 31 43 53
6 8 10 12 14 15 16 16 14 13 14 16 17 18 19 20 19 18 20 16 16 14 14 8 9 6 4 2 1 7 10 21 23 47 47 49 32 43
7 7 7 8 8 8 8 9 11 13 15 17 19 18 20 20 16 15 14 16 15 15 16 13 12 5 6 7 12 14 24 38 53 53 44 39 45 44
5 4 6 7 9 9 10 12 13 14 17 20 19 19 20 16 16 17 16 14 15 17 16 16 12 5 6 12 25 31 39 39 48 50 38 45 45 47
11 7 9 10 11 12 13 15 15 15 16 17 17 20 19 19 17 17 14 12 14 14 14 15 11 9 8 14 31 37 38 39 47 52 47 51 46 40
15 14 13 14 14 14 13 12 12 15 16 16 19 20 19 17 16 15 12 10 14 15 14 15 12 12 9 18 34 36 40 46 46 49 52 49 44 41
12 12 13 15 15 14 13 11 12 13 15 16 17 18 19 19 16 14 10 12 15 14 15 15 13 15 12 16 28 32 41 46 41 42 44 43 39 35
12 13 14 14 13 11 9 10 11 12 13 15 16 18 19 19 16 13 10 14 12 14 16 15 14 14 17 17 26 33 44 42 44 44 41 37 34 31
11 12 12 11 10 9 8 9 10 11 13 14 15 16 18 18 17 14 16 17 14 15 17 17 15 18 20 22 25 31 40 45 47 45 42 38 34 30
11 11 9 9 9 8 8 8 9 9 10 11 13 15 17 17 17 16 18 16 14 14 17 18 16 18 20 22 31 27 33 43 46 45 42 37 34 31
9 8 8 7 6 6 7 7 7 7 7 9 11 14 16 17 17 17 20 17 14 14 15 19 19 18 17 20 31 32 35 39 41 43 39 37 39 29
7 7 6 6 5 5 5 5 5 5 6 7 10 13 15 17 16 16 19 18 15 15 17 18 18 17 17 20 24 32 34 40 38 37 33 31 30 18
Wind_Direction
264 269 273 273 267 262 262 248 232 221 230 230 223 229 227 236 243 250 258 259 268 269 268 268 269 271 268 265 267 273 272 273 273 270 269 266 259 253
264 266 269 268 264 261 252 243 234 237 231 231 227 224 225 229 242 257 254 254 269 266 261 266 266 269 272 271 272 274 275 274 276 269 261 263 258 252
261 261 262 264 261 261 239 236 238 224 224 228 223 224 227 251 251 257 256 259 261 261 259 264 267 269 273 276 276 276 275 272 267 258 258 259 256 250
264 261 261 260 258 251 236 240 232 225 224 228 226 227 239 248 246 245 250 248 248 258 260 267 267 272 277 279 282 282 278 269 257 251 255 253 253 248
272 267 264 259 255 252 238 230 224 220 223 225 226 234 248 241 242 242 244 246 247 251 268 268 270 278 281 284 284 282 277 265 255 246 250 246 246 239
268 265 262 261 258 255 237 230 227 218 217 218 221 231 238 236 239 238 238 235 246 254 271 279 283 286 287 286 289 286 273 262 256 249 251 245 240 240
272 267 266 264 266 262 242 233 218 214 217 217 219 232 237 242 249 246 236 244 248 264 265 280 286 283 288 299 296 283 261 253 253 253 244 244 237 229
268 271 268 268 263 260 240 227 218 206 214 218 224 239 241 243 247 235 230 237 256 261 280 286 286 284 294 299 297 272 248 245 250 245 244 242 256 259
274 272 266 262 259 244 231 219 219 227 226 228 240 241 241 244 244 239 238 241 250 259 284 291 286 288 296 304 294 264 240 234 197 235 275 243 261 221
273 270 266 259 251 244 232 227 226 228 229 227 230 227 241 242 226 231 247 246 259 269 284 292 292 292 296 314 313 260 220 196 186 230 258 170 122 150
269 271 267 257 247 233 223 219 214 223 239 238 223 233 237 231 231 232 232 253 257 270 275 287 290 291 294 310 323 244 191 171 153 142 179 164 160 143
245 216 193 197 192 210 229 244 247 239 222 222 229 232 229 236 234 235 236 237 247 267 278 259 274 284 299 321 332 181 182 186 195 180 161 131 138 134
327 308 287 275 268 265 261 250 243 228 222 229 229 230 228 235 238 240 229 235 252 258 256 263 265 249 292 289 29 160 179 176 179 178 169 156 149 148
321 307 303 305 299 278 265 257 245 237 236 237 236 231 232 232 233 232 242 243 248 252 257 247 251 224 266 168 133 155 163 153 148 145 146 148 148 149
286 284 298 296 289 273 254 242 243 245 246 243 238 238 237 232 225 228 241 247 261 253 241 236 235 224 225 177 151 150 155 150 147 147 145 149 149 157
288 287 301 293 292 285 269 259 253 248 242 248 243 242 242 228 222 230 233 254 257 237 217 215 221 203 193 185 161 156 159 145 144 148 149 149 148 151
292 267 288 300 298 293 280 269 261 242 239 252 248 242 236 226 225 229 233 252 219 223 208 203 206 186 185 178 164 159 156 156 151 149 150 147 153 160
293 289 291 300 296 291 281 270 258 244 246 259 248 237 221 218 222 223 233 217 212 208 199 194 191 181 185 187 185 168 165 161 159 159 156 152 157 165
287 296 294 292 291 287 276 260 261 257 256 254 241 235 223 215 220 219 216 201 202 193 190 193 187 186 170 162 177 178 170 168 166 163 162 161 159 167
296 297 295 288 285 280 269 259 262 259 257 252 238 226 216 212 215 213 205 190 190 186 185 183 179 175 173 174 167 176 181 173 170 166 165 165 163 159
304 299 292 285 282 261 260 260 267 264 256 246 231 219 212 211 214 210 196 191 184 182 183 175 174 177 176 180 170 168 175 177 177 175 168 167 160 156
290 290 282 280 278 263 268 271 264 260 255 239 226 217 211 212 213 206 193 189 184 180 180 182 180 182 178 170 177 171 172 174 177 176 172 174 167 168
278 282 266 268 278 277 278 283 267 254 252 236 223 216 209 210 211 205 197 189 184 180 189 178 178 179 178 177 178 175 175 181 180 175 173 179 179 180